EHI
0 0 0 0 0 0 0 0 0 0 0 0 0 0 0 0 0 0 0 0 0 0 0 0 0 0 0 0 0 0 0 0 0 0 0 0 0 0
0 0 0 0 0 0 0 0 0 0 0 0 0 0 0 0 0 0 0 0 0 0 0 0 0 0 0 0 0 0 0 0 0 0 0 0 0 0
0 0 0 0 0 0 0 0 0 0 0 0 0 0 0 0 0 0 0 0 0 0 0 0 0 0 0 0 0 0 0 0 0 0 0 0 0 0
0 0 0 0 0 0 0 0 0 0 0 0 0 0 0 0 0 0 0 0 0 0 0 0 0 0 0 0 0 0 0 0 0 0 0 0 0 0
0 0 0 0 0 0 0 0 0 0 0 0 0 0 0 0 0 0 0 0 0 0 0 0 0 0 0 0 0 0 0 0 0 0 0 0 0 0
0 0 0 0 0 0 0 0 0 0 0 0 0 0 0 0 0 0 0 0 0 0 0 0 0 0 0 0 0 0 0 0 0 0 0 0 0 0
0 0 0 0 0 0 0 0 0 0 0 0 0 0 0 0 0 0 0 0 0 0 0 0 0 0 0 0 0 0 0 0 0 0 0 0 0 0
0 0 0 0 0 0 0 0 0 0 0 0 0 0 0 0 0 0 0 0 0 0 0 0 0 0 0 0 0 0 0 0 0 0 0 0 0 0
0 0 0 0 0 0 0 0 0 0 0 0 0 0 0 0 0 0 0 0 0 0 0 0 0 0 0 0 0 0 0 0 0 0 0 0 0 0
0 0 0 0 0 0 0 0 0 0 0 0 0 0 0 0 0 0 0 0 0 0 0 0 0 0 0 0 0 0 0 0 0 0 0 0 0 0
0 0 0 0 0 0 0 0 0 0 0 0 0 0 0 0 0 0 0 0 0 0 0 0 0 0 0 0 0 0 0 0 0 0 0 0 0 0
0 0 0 0 0 0 0 0 0 0 0 0 0 0 0 0 0 0 0 0 0 0 0 0 0 0 0 0 0 0 0 0 0 0 0 0 0 0
0 0 0 0 0 0 0 0 0 0 0 0 0 0 0 0 0 0 0 0 0 0 0 0 0 0 0 0 0 0 0 0 0 0 0 0 0 0
0 0 0 0 0 0 0 0 0 0 0 0 0 0 0 0 0 0 0 0 0 0 0 0 0 0 0 0 0 0 0 0 0 0 0 0 0 0
0 0 0 0 0 0 0 0 0 0 0 0 0 0 0 0 0 0 0 0 0 0 0 0 0 0 0 0 0 0 0 0 0 0 0 0 0 0
0 0 0 0 0 0 0 0 0 0 0 0 0 0 0 0 0 0 0 0 0 0 0 0 0 0 0 0 0 0 0 0 0 0 0 0 0 0
0 0 0 0 0 0 0 0 0 0 0 0 0 0 0 0 0 0 0 0 0 0 0 0 0 0 0 0 0 0 0 0 0 0 0 0 0 0
0 0 0 0 0 0 0 0 0 0 0 0 0 0 0 0 0 0 0 0 0 0 0 0 0 0 0 0 0 0 0 0 0 0 0 0 0 0
0 0 0 0 0 0 0 0 0 0 0 0 0 0 0 0 0 0 0 0 0 0 0 0 0 0 0 0 0 0 0 0 0 0 0 0 0 0
0 0 0 0 0 0 0 0 0 0 0 0 0 0 0 0 0 0 0 0 0 0 0 0 0 0 0 0 0 0 0 0 0 0 0 0 0 0
0 0 0 0 0 0 0 0 0 0 0 0 0 0 0 0 0 0 0 0 0 0 0 0 0 0 0 0 0 0 0 0 0 0 0 0 0 0
0 0 0 0 0 0 0 0 0 0 0 0 0 0 0 0 0 0 0 0 0 0 0 0 0 0 0 0 0 0 0 0 0 0 0 0 0 0
0 0 0 0 0 0 0 0 0 0 0 0 0 0 0 0 0 0 0 0 0 0 0 0 0 0 0 0 0 0 0 0 0 0 0 0 0 0
Wind_Speed
6 6 5 5 4 5 5 5 7 13 11 5 4 5 6 6 13 10 8 18 25 25 26 26 26 26 26 27 26 26 25 25 25 25 26 28 29 29
5 6 6 5 5 4 5 5 6 10 14 4 5 6 7 10 16 12 9 24 26 26 26 27 27 27 27 26 26 26 26 26 26 26 27 28 28 29
6 7 8 7 5 5 5 5 6 7 15 11 5 6 8 10 11 10 10 10 11 24 26 27 26 26 26 26 26 26 26 26 26 26 27 27 28 28
8 8 9 7 8 6 6 7 7 8 11 17 10 6 8 9 10 11 11 11 9 19 25 26 26 26 25 25 25 25 25 24 25 25 26 26 27 27
9 9 9 9 9 8 8 8 8 9 9 12 13 8 7 7 9 10 11 10 11 15 20 22 23 24 24 24 24 24 24 24 24 23 24 25 25 26
9 9 9 9 10 10 9 9 9 9 9 11 12 10 8 7 7 8 9 6 8 10 14 17 20 23 24 24 24 23 23 23 23 23 23 23 24 25
8 9 9 13 16 14 12 9 8 8 9 10 11 11 9 6 7 6 10 8 8 8 8 9 9 8 10 17 20 22 23 23 23 23 23 23 23 23
8 8 9 12 16 21 23 23 20 14 11 11 12 12 12 10 8 8 10 11 10 4 6 7 5 7 7 7 16 22 22 22 22 22 22 22 22 22
8 8 9 10 17 10 17 22 20 24 24 17 15 15 14 12 11 12 11 12 12 6 7 10 7 9 8 10 21 23 23 22 22 21 21 20 20 20
8 9 10 10 11 14 12 12 11 13 16 13 12 14 14 13 12 14 14 13 11 8 7 10 7 8 8 7 17 22 22 22 21 21 20 20 19 19
8 9 11 10 18 24 16 13 13 11 17 23 24 22 25 25 20 10 9 10 11 7 5 6 6 6 6 7 11 19 20 20 19 19 19 18 17 16
8 8 16 18 22 25 15 12 15 13 11 12 14 16 14 15 20 12 8 10 9 7 4 4 4 4 5 4 4 5 7 13 16 17 16 16 15 7
8 6 8 21 25 26 22 13 17 18 11 9 9 8 7 7 8 8 7 8 9 8 3 3 4 4 5 4 3 3 4 4 4 7 10 13 13 8
9 7 10 23 25 26 19 19 25 20 7 7 7 7 6 6 6 7 7 8 8 9 7 6 6 6 6 6 5 3 3 3 3 4 3 7 9 9
9 18 22 25 23 15 17 22 18 8 6 7 7 7 6 6 6 6 7 7 7 7 7 7 8 6 7 7 5 3 3 3 3 3 3 2 2 2
10 15 21 20 16 15 15 11 6 6 8 7 7 6 6 5 6 5 5 5 5 5 6 7 7 7 7 7 6 5 4 3 2 2 2 2 2 2
12 7 6 6 6 6 6 6 6 6 7 6 6 6 6 6 6 5 4 4 5 5 5 3 4 5 7 6 5 5 4 4 3 2 2 2 2 2
15 7 7 7 8 8 8 7 6 6 6 6 6 6 6 6 6 5 4 5 5 5 5 4 3 3 3 4 7 6 4 4 3 3 3 2 3 2
9 7 8 8 8 8 7 7 7 7 6 6 6 6 6 6 6 6 5 5 5 5 5 3 3 3 4 4 4 6 4 3 2 2 3 3 3 2
6 7 8 8 8 8 8 8 7 6 6 6 6 6 6 6 6 6 5 5 5 5 4 3 3 4 5 4 3 3 6 4 3 3 3 2 2 3
7 7 8 8 8 8 8 8 7 7 7 6 6 6 6 6 6 6 5 9 7 4 5 4 5 7 3 2 3 3 3 6 6 4 3 2 2 2
8 8 8 8 8 8 8 8 8 7 7 7 7 6 6 6 6 7 6 5 5 5 5 5 3 2 2 4 5 4 3 2 5 9 8 6 4 4
8 8 8 8 8 8 8 8 9 8 7 7 6 6 6 6 5 5 6 6 5 5 5 4 3 2 3 4 4 4 4 3 2 3 4 9 11 11
Wind_Direction
270 271 267 265 261 258 258 259 280 298 295 264 266 260 265 268 278 280 268 280 288 288 288 288 288 288 287 285 283 280 277 275 274 273 274 276 276 277
269 270 268 266 263 258 255 255 253 276 288 275 267 264 271 283 286 286 278 287 289 289 288 287 286 285 285 284 282 279 277 275 273 273 273 274 275 275
280 276 274 272 268 264 260 259 261 266 284 290 268 263 263 268 278 276 276 275 277 283 285 285 285 284 283 282 281 279 277 275 274 273 272 273 274 275
281 279 277 278 272 268 264 264 266 264 276 290 290 275 264 265 269 271 277 277 272 280 284 285 284 284 283 282 281 279 278 277 275 273 273 274 275 275
275 275 275 276 275 271 267 269 271 275 272 281 289 284 274 270 273 272 271 272 273 279 283 285 285 285 284 284 283 282 280 278 276 274 274 274 275 276
269 267 268 266 269 272 273 270 272 275 274 279 286 288 282 270 265 273 279 268 270 275 279 279 281 283 284 285 284 284 282 281 279 277 276 275 275 275
271 266 265 273 278 285 287 281 277 278 281 284 287 288 285 280 274 272 281 282 272 263 266 268 271 269 273 278 281 282 281 280 278 276 276 276 276 275
280 278 277 283 288 294 296 296 293 288 287 284 286 286 287 283 279 277 281 285 285 242 247 261 252 261 263 258 270 275 275 275 275 274 274 274 276 276
280 282 287 286 297 285 288 291 290 287 286 283 283 283 284 282 281 279 275 274 276 268 263 274 260 262 260 265 273 274 274 274 273 273 273 273 274 276
275 274 277 280 280 287 280 276 272 273 276 278 271 273 274 273 267 271 274 275 271 263 251 270 267 263 265 258 268 272 274 274 273 273 272 273 274 274
275 274 281 279 286 296 295 287 285 280 284 284 282 284 286 289 289 286 281 283 283 274 234 250 264 269 265 260 264 269 271 273 273 273 273 273 274 275
277 271 284 291 295 298 294 289 290 290 285 285 285 287 286 285 287 280 276 278 280 278 236 233 258 270 275 255 259 268 273 276 277 277 276 278 279 277
285 280 276 294 297 297 296 291 291 296 291 287 288 283 279 272 270 263 255 261 272 273 253 247 265 259 262 278 271 256 248 256 269 274 278 279 280 277
290 284 283 294 297 300 301 298 301 305 298 292 288 285 281 278 275 270 264 258 255 262 265 258 264 265 269 271 271 266 260 252 249 254 255 275 279 277
288 294 299 303 306 304 299 302 305 301 292 287 285 282 275 273 277 278 274 267 263 258 256 252 256 260 259 264 264 255 268 266 239 240 245 243 244 250
292 293 300 302 301 297 299 301 290 278 284 282 284 283 281 280 280 278 279 280 277 273 254 244 245 250 257 256 258 259 239 250 257 234 236 246 244 222
301 293 291 292 287 285 284 281 276 282 286 278 282 288 290 289 285 277 272 277 275 281 283 266 247 243 245 249 257 252 242 240 235 221 215 247 251 232
309 300 296 292 291 292 292 290 284 282 280 282 285 285 288 290 290 285 277 274 276 276 276 273 272 273 255 247 233 243 237 235 229 209 200 222 254 244
305 291 289 288 287 286 284 284 283 281 278 279 279 280 283 285 287 287 283 278 276 273 270 263 252 255 261 265 266 229 221 222 210 214 210 212 235 238
276 280 283 283 283 283 282 281 280 280 277 275 274 274 274 279 283 282 280 276 277 276 273 260 244 240 243 252 254 254 226 215 211 217 212 209 239 257
281 279 279 281 282 281 280 278 276 276 275 274 273 270 268 271 276 277 277 285 285 274 269 263 252 260 254 228 246 252 253 231 217 205 188 189 214 212
280 280 280 279 280 279 277 276 275 273 272 270 270 268 265 265 269 271 270 273 271 266 265 267 262 252 220 232 248 254 257 260 243 236 227 208 184 196
278 278 279 279 278 277 276 273 271 271 268 265 266 265 262 262 261 262 263 263 265 267 267 268 260 233 232 234 244 249 247 242 233 232 238 237 237 240